GW1159 Weather Reports


time (UTC)temp
F
wind
direction
speed
knots
gust
knots
rain 1hr
in
rain 24hr
in
rain mn
in
humidity
%
barometer
mb
20260507064556 61 135 2.6 8.7 0.00 0.31 0.00 67 1013.5
20260507064049 61 180 2.6 7.0 0.00 0.31 0.00 68 1013.5
20260507063547 60 119 2.6 7.0 0.00 0.31 0.00 69 1013.6
20260507063057 60 104 1.7 7.0 0.00 0.31 0.00 69 1013.5
20260507062548 60 115 1.7 7.0 0.00 0.31 0.00 71 1013.4
20260507062048 60 219 1.7 6.1 0.00 0.31 0.00 71 1013.4
20260507061555 59 117 2.6 6.1 0.00 0.31 0.00 72 1013.5
20260507061047 59 109 0.9 6.1 0.00 0.31 0.00 72 1013.5
20260507060551 58 136 2.6 6.1 0.00 0.31 0.00 73 1013.3
20260507060104 58 84 2.6 5.2 0.00 0.31 0.00 73 1013.2
20260507055553 58 83 1.7 4.3 0.00 0.46 0.00 73 1013.2
20260507055050 58 117 0.9 4.3 0.00 0.46 0.00 75 1013.3
20260507054559 58 104 1.7 4.3 0.00 0.46 0.00 75 1013.2
20260507054051 58 72 1.7 3.5 0.00 0.46 0.00 75 1013.1
20260507053551 57 0 0.0 3.5 0.00 0.46 0.00 78 1013.0
20260507053056 56 0 0.0 3.5 0.00 0.46 0.00 82 1013.0
20260507052550 55 153 0.9 2.6 0.00 0.46 0.00 83 1013.0
20260507052050 54 95 0.9 2.6 0.00 0.46 0.00 84 1013.0
20260507051553 53 0 0.0 2.6 0.00 0.46 0.00 85 1013.0
20260507051051 52 17 0.0 2.6 0.00 0.46 0.00 86 1012.9
20260507050548 52 103 0.0 1.7 0.00 0.46 0.00 87 1012.9
20260507050100 51 0 0.0 1.7 0.00 0.46 0.00 87 1012.8
20260507045553 51 0 0.0 0.9 0.00 0.69 0.00 87 1012.7
20260507045048 51 0 0.0 0.9 0.00 0.69 0.00 86 1012.8
20260507044552 51 0 0.0 0.0 0.00 0.69 0.00 87 1012.8
20260507044047 50 0 0.0 0.0 0.00 0.69 0.00 88 1012.6
20260507043550 49 0 0.0 0.9 0.00 0.69 0.00 90 1012.5
20260507043058 48 0 0.0 0.9 0.00 0.69 0.00 91 1012.6
20260507042551 48 0 0.0 0.9 0.00 0.69 0.00 91 1012.5
20260507042053 48 0 0.0 0.9 0.00 0.69 0.00 91 1012.4
20260507041556 48 0 0.0 0.9 0.00 0.69 0.00 91 1012.4
20260507041052 48 0 0.0 0.0 0.00 0.69 0.00 92 1012.4
20260507040551 48 0 0.0 0.0 0.00 0.69 0.00 91 1012.3
20260507040101 48 0 0.0 0.0 0.00 0.69 0.00 91 1012.3
20260507035550 48 0 0.0 0.0 0.00 0.78 0.00 91 1012.3
20260507035050 49 0 0.0 0.0 0.00 0.78 0.00 90 1012.2
20260507034559 49 0 0.0 0.0 0.00 0.78 0.00 90 1012.2
20260507034049 49 0 0.0 0.9 0.00 0.78 0.00 90 1012.1
20260507033552 49 0 0.0 0.9 0.00 0.78 0.00 89 1012.0
20260507033054 50 0 0.0 0.9 0.00 0.78 0.00 90 1012.1
20260507032551 49 259 0.9 0.9 0.00 0.78 0.00 91 1012.1
20260507032052 49 0 0.0 0.9 0.00 0.78 0.00 91 1012.1
20260507031553 49 0 0.0 0.9 0.00 0.78 0.00 91 1012.1
20260507031052 49 0 0.0 0.9 0.00 0.78 0.00 91 1011.9
20260507030550 49 0 0.0 0.9 0.00 0.78 0.00 91 1011.9
20260507030056 49 0 0.0 0.9 0.00 0.78 0.00 91 1012.0
20260507025552 50 256 0.0 0.9 0.00 0.92 0.00 90 1011.9
20260507025050 50 0 0.0 0.0 0.00 0.92 0.00 90 1011.9
20260507024558 50 0 0.0 0.0 0.00 0.92 0.00 90 1011.9
20260507024048 50 0 0.0 0.9 0.00 0.92 0.00 90 1011.8
20260507023548 50 0 0.0 0.9 0.00 0.92 0.00 89 1011.8
20260507023054 51 0 0.0 0.9 0.00 0.92 0.00 89 1011.6
20260507022548 51 283 0.0 0.9 0.00 0.92 0.00 89 1011.8
20260507022051 52 0 0.0 0.0 0.00 0.92 0.00 88 1011.7
20260507021557 52 0 0.0 0.9 0.00 0.92 0.00 88 1011.7
20260507021050 52 0 0.0 0.9 0.00 0.92 0.00 87 1011.7
20260507020554 52 217 0.0 0.9 0.00 0.92 0.00 87 1011.7
20260507020057 53 0 0.0 0.9 0.00 0.92 0.00 86 1011.7
20260507015550 53 0 0.0 1.7 0.00 1.07 0.00 85 1011.7
20260507015048 54 0 0.0 1.7 0.00 1.07 0.00 83 1011.7
20260507014552 54 0 0.0 3.5 0.00 1.07 0.00 82 1011.8
20260507014050 55 0 0.0 3.5 0.00 1.07 0.00 81 1011.7
20260507013551 54 203 0.9 3.5 0.00 1.07 0.00 84 1011.5
20260507013050 54 0 0.0 1.7 0.00 1.07 0.00 85 1011.5
20260507012551 53 6 0.9 1.7 0.00 1.07 0.00 87 1011.6
20260507012048 52 255 0.0 0.9 0.00 1.07 0.00 88 1011.5
20260507011552 52 255 0.0 0.9 0.00 1.07 0.00 89 1011.4
20260507011047 52 0 0.0 0.9 0.00 1.07 0.00 89 1011.4
20260507010551 52 0 0.0 0.9 0.00 1.07 0.00 90 1011.4
20260507010110 51 0 0.0 0.9 0.00 1.07 0.00 90 1011.4
20260507005551 51 0 0.0 0.0 0.00 1.25 0.00 89 1011.4
20260507005052 52 0 0.0 0.9 0.00 1.25 0.00 88 1011.4
20260507004556 52 0 0.0 0.9 0.00 1.25 0.00 89 1011.5
20260507004051 51 0 0.0 0.9 0.00 1.25 0.00 90 1011.5
20260507003552 52 0 0.0 0.9 0.00 1.25 0.00 89 1011.4
20260507003057 52 0 0.0 0.9 0.00 1.25 0.00 89 1011.5
20260507002548 52 0 0.0 0.9 0.00 1.25 0.00 90 1011.5
20260507002050 52 0 0.0 0.9 0.00 1.25 0.00 89 1011.5
20260507001557 52 0 0.0 0.0 0.00 1.25 0.00 89 1011.5
20260507001050 52 0 0.0 0.0 0.00 1.25 0.00 88 1011.5
20260507000555 52 0 0.0 0.0 0.00 1.25 0.00 87 1011.6
20260507000056 53 0 0.0 0.0 0.00 1.25 0.00 87 1011.7
20260506235551 53 0 0.0 0.9 0.00 1.28 0.00 87 1011.6
20260506235050 53 0 0.0 0.9 0.00 1.28 0.00 87 1011.6
20260506234602 53 0 0.0 0.9 0.00 1.28 0.00 86 1011.5
20260506234050 53 0 0.0 0.9 0.00 1.28 0.00 85 1011.6
20260506233551 54 0 0.0 0.9 0.00 1.28 0.00 85 1011.6
20260506233100 54 0 0.0 0.9 0.00 1.28 0.00 84 1011.6
20260506232550 54 202 0.0 1.7 0.00 1.28 0.00 85 1011.6
20260506232048 54 231 0.0 1.7 0.00 1.28 0.00 85 1011.7
20260506231557 54 0 0.9 2.6 0.00 1.28 0.00 85 1011.7
20260506231048 54 0 0.9 2.6 0.00 1.28 0.00 85 1011.7
20260506230550 54 0 0.0 0.9 0.00 1.28 0.00 84 1011.8
20260506230057 54 243 0.0 0.9 0.00 1.28 0.00 84 1011.7
20260506225551 54 0 0.0 0.9 0.00 1.28 0.00 84 1011.8
20260506225053 54 0 0.0 0.9 0.00 1.28 0.00 83 1011.8
20260506224554 55 245 0.0 1.7 0.00 1.28 0.00 83 1011.8
20260506224050 55 0 0.0 2.6 0.00 1.28 0.00 83 1011.7
20260506223550 55 0 0.0 2.6 0.00 1.28 0.00 83 1011.8
20260506223059 55 273 0.0 1.7 0.00 1.28 0.00 83 1011.6
20260506222550 55 0 0.0 4.3 0.00 1.28 0.00 83 1011.6
20260506222051 55 318 0.9 4.3 0.00 1.28 0.00 83 1011.5
20260506221551 55 340 0.9 2.6 0.00 1.28 0.00 82 1011.5
20260506221050 55 0 0.0 0.9 0.00 1.28 0.00 81 1011.5
20260506220550 55 0 0.0 0.9 0.00 1.28 0.00 81 1011.4
20260506220054 55 0 0.0 1.7 0.00 1.28 0.00 82 1011.3
20260506215549 55 0 0.0 1.7 0.00 1.28 1.28 82 1011.4
20260506215048 56 0 0.0 1.7 0.00 1.28 1.28 81 1011.3
20260506214556 56 0 0.0 1.7 0.00 1.28 1.28 80 1011.3
20260506214051 55 0 0.0 1.7 0.00 1.28 1.28 80 1011.2
20260506213551 56 0 0.0 1.7 0.00 1.28 1.28 81 1011.2
20260506213056 56 106 0.0 0.9 0.00 1.28 1.28 80 1011.3
20260506212551 56 134 0.0 0.9 0.00 1.28 1.28 80 1011.2
20260506212051 56 0 0.0 0.9 0.00 1.28 1.28 79 1011.2
20260506211554 56 0 0.0 0.9 0.00 1.28 1.28 79 1011.2
20260506211050 57 0 0.0 0.9 0.00 1.28 1.28 78 1011.2
20260506210554 57 0 0.0 1.7 0.00 1.28 1.28 76 1011.1
20260506210053 58 0 0.0 1.7 0.00 1.28 1.28 75 1011.1
20260506205550 58 0 0.0 0.9 0.00 1.28 1.28 72 1011.1
20260506205051 58 0 0.0 0.9 0.00 1.28 1.28 73 1011.0
20260506204555 58 167 0.0 0.9 0.00 1.28 1.28 73 1010.9
20260506204055 58 0 0.0 1.7 0.00 1.28 1.28 73 1011.0
20260506203551 58 155 0.0 1.7 0.00 1.28 1.28 73 1011.1
20260506203053 58 158 0.0 0.9 0.00 1.28 1.28 74 1011.0
20260506202553 58 0 0.0 0.9 0.00 1.28 1.28 74 1011.0
20260506202051 57 137 0.0 0.9 0.00 1.28 1.28 75 1010.9
20260506201553 57 0 0.0 0.9 0.00 1.28 1.28 76 1010.9
20260506201046 57 129 0.0 0.9 0.00 1.28 1.28 77 1010.8
20260506200547 57 136 0.0 0.9 0.00 1.28 1.28 77 1010.8
20260506200056 58 98 0.0 0.0 0.00 1.28 1.28 76 1010.8
20260506195551 58 0 0.0 0.0 0.00 1.28 1.28 76 1010.7
20260506195047 58 0 0.0 0.9 0.00 1.28 1.28 75 1010.7
20260506194552 59 0 0.0 0.9 0.00 1.28 1.28 75 1010.6
20260506194047 59 0 0.0 0.9 0.00 1.28 1.28 74 1010.6
20260506193546 59 0 0.0 1.7 0.00 1.28 1.28 75 1010.6
20260506193049 59 0 0.0 1.7 0.00 1.28 1.28 75 1010.3
20260506192549 59 115 0.0 1.7 0.00 1.28 1.28 73 1010.2
20260506192049 59 0 0.0 0.9 0.00 1.28 1.28 73 1010.2
20260506191553 59 0 0.0 0.0 0.00 1.28 1.28 71 1010.0
20260506191048 60 0 0.0 2.6 0.00 1.28 1.28 71 1009.9
20260506190547 61 0 0.0 2.6 0.00 1.28 1.28 71 1009.9
20260506190053 61 103 0.0 1.7 0.00 1.28 1.28 69 1009.8
20260506185547 61 0 0.0 2.6 0.00 1.28 1.28 67 1009.8
20260506185046 61 0 0.0 2.6 0.00 1.28 1.28 70 1009.7
20260506184558 61 0 0.0 2.6 0.00 1.28 1.28 68 1009.6
20260506184047 62 0 0.0 2.6 0.00 1.28 1.28 69 1009.6
20260506183547 62 65 0.9 2.6 0.00 1.28 1.28 67 1009.6
20260506183057 62 69 0.0 3.5 0.00 1.28 1.28 68 1009.5
20260506182546 62 82 0.9 3.5 0.00 1.28 1.28 68 1009.5
20260506182047 62 3 0.0 3.5 0.00 1.28 1.28 68 1009.5
20260506181552 62 0 0.0 0.9 0.00 1.28 1.28 67 1009.4
20260506181048 62 0 0.0 1.7 0.00 1.28 1.28 69 1009.4
20260506180548 63 314 0.0 3.5 0.00 1.28 1.28 67 1009.2
20260506180052 63 0 0.0 3.5 0.00 1.28 1.28 69 1009.3
20260506175548 63 224 0.9 3.5 0.00 1.28 1.28 68 1009.2
20260506175047 63 0 0.0 3.5 0.00 1.28 1.28 69 1009.2
20260506174559 64 229 0.0 3.5 0.00 1.28 1.28 68 1009.1
20260506174047 64 233 0.9 3.5 0.00 1.28 1.28 67 1009.1
20260506173547 64 174 1.7 4.3 0.00 1.28 1.28 66 1009.1
20260506173122 64 224 0.9 5.2 0.00 1.28 1.28 66 1009.1
20260506172546 64 118 0.9 5.2 0.00 1.28 1.28 67 1009.0
20260506172046 64 142 0.9 4.3 0.00 1.28 1.28 70 1009.0
20260506171552 65 218 0.9 3.5 0.00 1.28 1.28 69 1008.9
20260506171047 65 232 0.0 1.7 0.00 1.28 1.28 72 1008.8
20260506170550 65 0 0.0 2.6 0.00 1.28 1.28 71 1008.9
20260506170056 65 0 0.0 2.6 0.00 1.28 1.28 69 1008.9
20260506165547 65 255 0.0 1.7 0.00 1.28 1.28 70 1008.9
20260506165048 66 0 0.0 1.7 0.00 1.28 1.28 70 1008.9
20260506164552 66 0 0.0 2.6 0.00 1.28 1.28 70 1008.9
20260506164048 66 126 0.0 2.6 0.00 1.28 1.28 69 1008.8
20260506163547 66 140 0.9 3.5 0.00 1.28 1.28 67 1008.8
20260506163054 66 195 0.0 4.3 0.00 1.28 1.28 68 1008.9
20260506162546 66 219 0.9 8.7 0.00 1.28 1.28 69 1008.9
20260506162047 66 220 3.5 8.7 0.00 1.28 1.28 72 1008.9
20260506161600 66 176 0.0 1.7 0.00 1.28 1.28 78 1008.9
20260506161048 66 0 0.0 1.7 0.00 1.28 1.28 80 1008.8
20260506160547 66 226 0.0 1.7 0.00 1.28 1.28 79 1008.9
20260506160109 66 0 0.0 0.0 0.00 1.28 1.28 74 1008.8
20260506155548 66 0 0.0 0.9 0.00 1.28 1.28 77 1008.8
20260506155048 66 0 0.0 1.7 0.00 1.28 1.28 77 1008.8
20260506154602 66 0 0.0 2.6 0.00 1.28 1.28 76 1008.7
20260506154047 66 100 0.0 2.6 0.00 1.28 1.28 77 1008.6
20260506153546 66 55 0.9 2.6 0.00 1.28 1.28 77 1008.7
20260506153054 66 0 0.0 0.9 0.00 1.28 1.28 76 1008.7
20260506152546 67 2 0.0 0.9 0.00 1.28 1.28 75 1008.7
20260506152048 67 1 0.0 1.7 0.00 1.28 1.28 76 1008.6
20260506151555 67 0 0.0 3.5 0.00 1.28 1.28 77 1008.7
20260506151047 66 262 0.0 4.3 0.00 1.28 1.28 75 1008.7
20260506150547 67 223 0.9 4.3 0.00 1.28 1.28 75 1008.7
20260506150100 67 268 0.9 4.3 0.00 1.28 1.28 76 1008.7
20260506145548 67 142 0.0 1.7 0.00 1.28 1.28 78 1008.8
20260506145049 67 131 0.0 1.7 0.00 1.28 1.28 77 1008.9
20260506144612 67 263 0.0 3.5 0.00 1.28 1.28 77 1008.8
20260506144048 66 219 0.0 3.5 0.00 1.28 1.28 77 1008.8
20260506143548 66 215 0.0 5.2 0.00 1.28 1.28 76 1008.7
20260506143056 66 243 0.0 7.8 0.00 1.28 1.28 79 1008.8
20260506142550 66 120 1.7 7.8 0.00 1.28 1.28 78 1008.8
20260506142047 66 243 0.9 6.1 0.00 1.28 1.28 78 1009.0
20260506141556 66 89 1.7 6.1 0.00 1.28 1.28 79 1008.8
20260506141051 67 162 0.9 5.2 0.00 1.28 1.28 79 1008.9
20260506140547 67 96 0.9 5.2 0.00 1.28 1.28 80 1009.0
20260506140105 66 121 1.7 5.2 0.00 1.28 1.28 79 1009.1
20260506135548 67 158 0.9 4.3 0.00 1.28 1.28 79 1009.1
20260506135048 67 243 0.9 4.3 0.00 1.28 1.28 78 1009.1
20260506134601 67 165 0.9 6.1 0.00 1.28 1.28 81 1009.3
20260506134047 66 142 0.9 6.1 0.00 1.28 1.28 79 1009.4
20260506133547 66 208 1.7 4.3 0.00 1.28 1.28 76 1009.5
20260506133134 66 214 1.7 3.5 0.00 1.28 1.28 81 1009.6
20260506132549 65 172 0.9 3.5 0.00 1.28 1.28 83 1009.7
20260506132048 64 107 0.9 3.5 0.00 1.28 1.28 86 1009.8
20260506131554 64 153 0.0 6.1 0.00 1.28 1.28 88 1009.8
20260506131051 64 159 1.7 6.1 0.00 1.28 1.28 87 1009.7
20260506130547 64 83 1.7 6.1 0.01 1.28 1.28 88 1009.7
20260506130140 64 170 0.9 2.6 0.02 1.28 1.28 88 1010.0
20260506125549 64 269 0.0 1.7 0.02 1.28 1.28 89 1010.2
20260506125047 64 0 0.0 1.7 0.02 1.28 1.28 88 1010.0
20260506124554 64 134 0.0 1.7 0.03 1.28 1.28 90 1010.0
20260506124048 64 0 0.0 2.6 0.03 1.28 1.28 89 1010.0
20260506123548 64 0 0.0 2.6 0.03 1.28 1.28 88 1009.9
20260506123055 64 0 0.0 2.6 0.03 1.28 1.28 88 1010.0
20260506122547 64 158 0.0 2.6 0.03 1.28 1.28 89 1009.9
20260506122046 64 0 0.0 2.6 0.03 1.28 1.28 86 1009.7
20260506121556 64 169 0.0 2.6 0.03 1.28 1.28 84 1009.7
20260506121048 64 0 0.0 5.2 0.03 1.28 1.28 86 1009.6
20260506120547 64 0 0.9 5.2 0.01 1.26 1.26 85 1009.8
20260506120104 65 237 1.7 5.2 0.00 1.25 1.25 84 1010.1
20260506115547 65 338 0.9 6.1 0.00 1.25 1.25 83 1009.8
20260506115048 65 309 0.9 8.7 0.00 1.25 1.25 83 1009.8
20260506114603 66 222 2.6 8.7 0.00 1.25 1.25 81 1009.8
20260506114047 66 325 2.6 7.8 0.00 1.25 1.25 79 1009.8
20260506113547 66 251 2.6 9.6 0.00 1.25 1.25 77 1009.6
20260506113058 67 228 2.6 9.6 0.00 1.25 1.25 77 1009.6
20260506112547 67 220 2.6 9.6 0.00 1.25 1.25 75 1009.5
20260506112047 67 229 2.6 9.6 0.00 1.25 1.25 74 1009.5
20260506111554 68 185 0.9 5.2 0.00 1.25 1.25 75 1009.6
20260506111049 68 139 1.7 6.1 0.00 1.25 1.25 75 1009.6
20260506110547 68 217 0.9 6.1 0.00 1.25 1.25 76 1009.6
20260506110054 69 152 0.9 8.7 0.00 1.25 1.25 72 1009.5
20260506105547 69 127 1.7 8.7 0.00 1.25 1.25 73 1009.5
20260506105048 69 193 2.6 8.7 0.00 1.25 1.25 72 1009.5
20260506104600 69 141 1.7 6.1 0.00 1.25 1.25 76 1009.6
20260506104049 69 143 3.5 8.7 0.00 1.25 1.25 75 1009.7
20260506103549 69 71 1.7 8.7 0.00 1.25 1.25 76 1009.5
20260506103049 69 132 1.7 10.4 0.00 1.25 1.25 76 1009.7
20260506102549 69 205 2.6 10.4 0.00 1.25 1.25 76 1009.5
20260506102048 69 88 1.7 11.3 0.00 1.25 1.25 78 1009.4
20260506101550 69 150 1.7 11.3 0.00 1.25 1.25 80 1009.6
20260506101047 68 58 3.5 11.3 0.00 1.25 1.25 77 1009.5
20260506100547 69 229 1.7 10.4 0.00 1.25 1.25 83 1009.6
20260506100106 68 156 0.9 5.2 0.00 1.25 1.25 85 1009.4
20260506095547 67 259 0.0 5.2 0.00 1.36 1.25 88 1009.6
20260506095047 67 167 1.7 5.2 0.00 1.36 1.25 87 1009.7
20260506094600 66 309 0.0 3.5 0.00 1.36 1.25 91 1009.8
20260506094046 65 84 0.9 3.5 0.00 1.36 1.25 89 1009.8
20260506093550 65 98 0.0 5.2 0.00 1.36 1.25 94 1009.7
20260506093053 64 86 0.0 5.2 0.00 1.36 1.25 94 1009.8
20260506092549 63 103 0.9 4.3 0.04 1.36 1.25 93 1009.7
20260506092047 63 0 0.0 4.3 0.05 1.36 1.25 96 1009.8
20260506091553 62 123 0.9 2.6 0.06 1.36 1.25 96 1009.9
20260506091048 62 0 0.0 4.3 0.07 1.36 1.25 97 1009.8
20260506090546 61 0 0.9 4.3 0.09 1.36 1.25 96 1009.8
20260506090051 60 214 0.9 4.3 0.10 1.36 1.25 97 1009.9
20260506085547 60 214 0.9 3.5 0.10 1.38 1.25 97 1010.0
20260506085051 60 239 0.0 0.9 0.11 1.38 1.25 98 1010.0
20260506084554 59 0 0.0 0.9 0.11 1.38 1.25 97 1010.0
20260506084047 59 0 0.0 0.9 0.11 1.38 1.25 97 1010.0
20260506083548 59 125 0.0 0.9 0.11 1.38 1.25 97 1010.1
20260506083054 58 0 0.0 0.9 0.11 1.37 1.24 97 1010.1
20260506082547 58 0 0.0 0.9 0.07 1.33 1.20 97 1010.1
20260506082049 58 0 0.0 2.6 0.07 1.33 1.19 97 1010.0
20260506081606 58 97 0.0 2.6 0.07 1.32 1.18 97 1010.0
20260506081049 58 0 0.9 2.6 0.06 1.30 1.17 97 1010.1
20260506080549 58 0 0.0 4.3 0.05 1.29 1.15 97 1010.1
20260506073052 58 0 0.0 1.7 0.07 1.27 1.13 97 1010.0
20260506072547 58 0 0.0 1.7 0.07 1.27 1.13 97 1010.1
20260506072046 58 0 0.0 1.7 0.07 1.26 1.12 97 1010.0
20260506071551 57 0 0.0 1.7 0.07 1.25 1.11 97 1010.1
20260506071047 57 0 0.0 1.7 0.09 1.25 1.11 97 1010.2
20260506070546 57 0 0.0 1.7 0.11 1.24 1.10 97 1010.2